SCP
1 2 3 4 3 1 0 0 0 0 0 0 0 0 0 0 0 0 0 1 1 1 0 0 0 0 0 0 0 0 0 0 1 1 0 0 0 0 0 0 0 0 0 0 0 0 0 0 0
1 2 3 3 2 1 0 0 0 0 0 0 0 0 0 0 0 0 0 1 1 1 1 1 0 0 0 0 0 0 0 0 0 0 0 0 0 0 0 0 0 0 0 0 0 0 0 0 0
2 3 3 2 1 0 0 0 0 0 0 0 0 0 0 0 0 0 1 1 1 1 1 1 0 0 0 0 0 0 0 0 0 0 0 0 0 0 0 0 0 0 0 0 0 0 0 0 0
3 3 2 1 0 0 0 0 0 0 0 0 0 0 0 0 0 0 1 1 2 2 1 1 0 0 0 0 0 0 0 0 0 0 0 0 0 0 0 0 0 0 0 0 0 0 0 0 0
3 2 1 1 0 0 0 0 0 0 0 0 1 1 1 0 0 1 1 2 2 2 1 1 1 0 0 0 0 0 0 0 0 0 0 0 0 0 0 0 0 0 0 0 0 0 0 0 0
2 2 1 0 0 0 0 0 0 0 0 1 1 1 1 1 1 1 1 2 3 2 2 1 1 0 0 0 0 0 0 0 0 0 0 0 0 0 0 0 0 0 0 0 0 0 0 0 0
2 1 0 0 0 0 0 0 0 0 0 0 1 1 1 1 1 1 2 2 3 2 2 1 1 1 0 0 0 0 0 0 0 0 0 0 0 0 0 0 0 0 0 0 0 0 0 0 0
1 0 0 0 0 0 0 0 0 0 0 0 1 2 2 2 2 2 2 2 2 2 2 1 1 1 1 1 1 0 0 0 0 1 1 0 0 0 0 0 0 0 0 0 0 0 0 0 0
0 0 0 0 0 0 0 0 0 1 1 1 1 2 2 2 2 3 3 3 2 2 2 1 1 1 1 1 1 1 0 0 1 1 1 1 0 0 0 0 0 0 0 0 0 0 0 0 0
0 0 0 0 0 0 0 0 0 1 1 1 2 2 2 2 2 3 3 3 2 2 2 2 2 2 2 2 1 1 1 1 1 1 1 1 1 1 0 0 0 0 0 0 0 0 0 0 0
0 0 0 0 0 0 0 0 0 1 1 1 2 2 2 2 3 3 3 2 2 2 2 2 2 2 2 2 1 1 1 1 1 1 1 1 0 1 1 1 0 0 0 0 0 1 1 1 0
0 0 0 0 0 0 0 0 0 1 1 1 2 2 2 2 3 3 3 3 2 2 3 4 3 2 2 2 1 1 1 1 1 1 1 1 0 1 1 1 1 0 1 1 1 1 1 1 0
0 0 0 0 0 0 0 0 0 1 1 1 2 2 2 2 3 4 4 4 4 3 4 5 4 3 2 2 2 2 1 1 1 1 1 1 1 1 1 1 1 1 1 1 1 1 1 1 0
0 0 0 0 1 0 0 0 1 1 1 1 2 2 2 3 4 5 6 5 5 4 5 5 4 3 3 2 2 2 2 2 2 2 2 1 1 1 1 1 1 1 1 1 1 1 1 1 1
0 0 0 0 0 0 0 1 1 1 1 1 1 2 2 3 4 6 7 6 5 5 5 4 3 3 3 3 2 2 2 2 3 2 2 2 1 1 1 1 1 1 1 1 1 1 1 1 1
0 0 0 0 0 0 0 1 1 2 2 1 2 2 3 4 5 7 7 6 5 5 5 4 4 4 4 3 3 2 2 3 3 3 3 2 2 2 2 2 1 1 1 1 1 1 1 1 1
0 0 0 0 0 0 1 1 2 2 2 2 2 3 4 5 6 7 6 5 6 7 7 6 5 5 5 4 3 2 2 3 4 4 3 3 2 2 2 2 2 1 1 1 1 1 1 1 1
0 0 0 0 0 0 1 1 2 2 2 2 2 4 5 5 6 6 5 5 6 9 9 7 6 6 6 5 4 3 2 3 3 3 3 3 2 2 2 2 2 1 1 1 1 1 1 1 1
0 0 0 0 0 0 1 1 1 1 2 2 2 4 5 6 6 7 7 6 7 10 11 10 8 8 7 6 5 4 3 2 2 3 3 3 3 2 2 1 1 1 2 2 1 1 1 1 1
0 0 0 0 0 0 0 1 1 2 2 2 2 4 6 7 7 8 9 7 8 11 12 11 9 8 8 7 6 5 4 3 2 3 3 3 3 2 2 2 2 2 2 2 2 1 1 1 1
0 0 0 0 0 0 0 1 2 2 2 2 2 4 6 7 8 9 9 8 8 9 10 9 8 7 7 7 6 5 4 3 3 3 3 3 3 2 2 2 2 2 2 2 2 1 1 1 1
0 0 0 0 0 0 0 1 2 2 2 2 3 4 6 7 7 8 8 8 7 7 7 7 7 7 7 7 6 5 4 4 4 3 3 3 3 3 2 2 2 3 3 2 1 1 1 1 1
0 0 0 0 0 0 0 1 1 1 1 2 3 5 6 6 6 7 8 8 7 6 6 7 7 7 6 6 6 5 5 4 4 4 4 4 3 3 2 2 2 3 3 2 2 2 2 1 1
0 0 0 0 0 0 0 1 1 1 2 2 4 5 5 5 6 7 8 7 6 6 7 7 8 7 7 6 6 6 5 5 5 5 5 5 3 3 2 2 2 3 3 3 3 3 3 2 2
0 0 0 0 0 0 0 1 1 2 2 3 4 4 5 5 5 6 6 5 5 5 7 8 8 8 7 5 5 5 6 5 5 5 5 4 3 2 2 2 3 3 3 3 4 4 4 4 3
0 0 0 0 0 0 0 1 2 2 3 3 3 3 3 4 5 5 5 4 4 5 6 8 9 9 7 5 5 5 5 5 5 5 4 4 3 2 2 3 4 4 4 4 4 4 4 4 4
0 0 0 0 0 0 0 1 2 2 3 3 3 2 3 4 4 5 5 4 4 4 5 7 10 10 8 6 5 4 4 4 4 4 3 3 3 2 3 3 4 4 4 4 4 4 4 4 3
0 0 0 0 0 0 0 1 2 2 3 3 3 3 3 3 4 4 5 5 4 4 5 7 10 10 8 7 5 4 4 4 4 4 4 4 4 4 4 4 4 4 4 4 4 4 4 3 3
0 0 0 0 0 0 0 1 1 2 2 2 3 3 3 3 3 4 5 5 5 5 6 8 10 10 8 6 5 4 4 4 4 4 5 6 6 6 6 5 4 4 4 4 4 4 3 3 2
0 0 0 0 0 0 0 0 1 2 2 2 2 3 4 3 3 4 5 5 5 6 7 9 10 8 7 6 5 4 4 4 4 4 6 7 7 7 7 6 5 5 5 5 4 3 3 2 2
Wind_Speed
9 11 10 7 3 7 17 17 17 16 16 15 16 16 19 17 14 13 13 18 19 17 14 13 12 12 12 12 12 12 12 12 12 12 12 12 12 13 13 14 14 14 15 15 15 15 15 15 14
10 13 10 6 4 11 15 15 15 14 13 14 17 19 20 19 18 16 15 16 18 17 14 13 12 12 12 12 11 11 12 12 12 12 11 12 12 12 13 14 14 14 14 14 14 15 15 14 13
12 15 8 2 12 14 15 14 13 13 12 15 18 19 16 15 16 15 15 17 17 17 15 14 13 12 12 11 11 11 11 11 11 11 11 11 12 12 12 13 13 14 14 13 13 14 14 13 11
9 7 2 8 17 16 14 12 12 13 13 14 15 14 16 15 16 17 16 17 18 17 16 14 13 12 12 11 11 11 11 11 10 10 10 11 11 11 12 12 12 13 13 12 12 13 12 11 10
9 4 4 13 17 15 13 13 13 14 15 17 19 18 17 17 17 17 15 16 17 18 16 14 13 12 12 11 11 10 10 11 10 10 10 10 11 11 11 12 11 12 12 12 12 12 11 9 8
5 1 4 12 16 14 13 13 13 14 14 17 19 18 15 15 14 14 15 14 16 18 17 14 13 13 12 11 11 10 10 10 10 10 10 10 10 10 10 11 11 11 11 11 11 10 9 8 6
4 2 8 13 13 13 13 12 13 13 12 13 17 17 14 14 12 13 14 13 14 16 16 13 13 11 12 11 11 10 10 10 9 9 10 10 11 10 10 10 10 10 10 10 9 9 8 7 5
2 3 8 11 12 13 13 13 14 12 10 8 11 13 15 14 13 14 13 13 12 12 14 13 12 11 11 10 10 10 10 9 9 9 9 10 11 10 10 10 9 10 9 9 9 8 8 6 5
5 3 7 11 12 11 12 12 12 12 11 11 13 18 18 17 15 13 12 12 10 10 10 10 11 10 9 10 11 10 10 8 8 7 9 9 6 8 7 10 10 9 9 8 8 8 7 6 5
3 3 9 11 11 11 10 10 10 11 12 13 15 18 18 16 14 13 13 12 10 10 9 7 9 8 8 7 8 5 6 6 4 3 5 3 2 4 7 10 10 9 8 8 8 7 7 6 4
3 5 8 10 11 10 9 9 9 11 11 15 18 18 16 15 13 13 12 12 11 10 8 8 7 6 6 6 5 4 3 4 3 3 3 3 3 4 6 5 6 6 7 5 7 6 4 4 2
2 6 7 9 10 9 8 9 10 11 12 16 18 17 15 14 12 12 12 12 11 10 9 8 8 5 4 4 4 4 4 4 3 3 2 2 1 2 3 3 4 4 3 3 3 3 3 2 1
2 4 5 7 7 8 7 7 10 12 14 16 18 17 15 13 11 11 11 11 11 9 8 8 8 5 4 3 1 3 3 4 4 3 2 2 2 2 3 2 2 2 2 3 2 2 2 2 1
3 1 3 5 7 9 8 3 4 12 15 16 16 15 14 12 12 12 11 10 10 9 9 8 8 6 4 3 1 1 2 3 3 3 3 2 2 2 2 2 1 1 1 2 2 2 2 1 1
5 4 3 5 7 8 9 3 1 9 14 15 14 13 13 12 12 12 11 10 10 9 9 8 8 8 5 4 3 3 2 3 2 3 3 2 2 3 2 2 1 1 1 2 1 1 1 1 2
10 7 5 4 7 9 7 4 6 11 12 13 13 12 11 10 12 12 12 10 10 9 9 8 8 9 7 4 3 2 2 2 2 3 2 2 3 2 2 2 2 2 1 2 1 1 1 1 1
11 7 6 6 7 6 6 7 8 10 11 11 11 12 12 10 11 12 12 10 10 9 9 7 5 8 7 5 3 2 1 2 2 2 3 3 3 3 2 1 2 2 1 2 2 2 1 1 1
9 6 6 5 7 4 3 6 11 10 11 12 11 12 12 12 11 11 11 11 9 9 9 8 6 6 6 5 3 2 2 2 2 2 3 3 3 3 2 2 3 3 2 2 1 1 1 1 1
9 9 5 2 4 1 1 3 7 10 10 11 11 11 12 12 12 12 11 11 11 9 9 8 7 6 5 4 4 3 3 3 3 3 4 5 4 3 3 2 2 2 2 2 2 2 3 2 2
8 8 7 2 3 2 3 4 2 5 8 9 10 11 12 12 12 12 11 11 11 10 9 8 7 7 6 4 3 3 3 3 3 2 3 4 4 3 4 3 2 2 1 2 2 2 2 2 2
10 9 7 5 2 4 4 4 2 3 4 6 9 11 12 13 13 13 12 11 11 11 10 8 8 7 7 5 3 3 2 2 2 3 3 3 3 3 2 3 3 2 2 2 3 3 3 3 2
10 9 8 7 7 6 7 4 3 5 6 8 7 8 10 11 13 13 12 11 11 11 10 8 8 7 6 5 4 4 3 3 3 2 3 3 3 3 3 3 2 2 2 2 4 3 3 3 3
10 8 8 9 9 8 8 5 4 7 7 8 9 10 10 11 12 13 13 11 10 10 9 8 7 6 6 5 5 4 3 2 2 2 3 3 3 3 3 3 2 2 2 2 3 2 2 2 3
9 9 9 9 9 11 10 7 4 5 8 9 10 10 10 11 11 11 11 10 9 9 9 9 8 6 6 6 5 4 4 3 2 2 2 2 2 2 2 3 2 2 2 2 2 2 3 3 3
11 9 7 8 8 9 7 6 4 7 7 7 8 11 11 11 11 11 11 10 9 9 9 9 8 7 7 7 5 5 4 3 3 2 2 2 2 2 2 2 2 2 2 2 2 2 3 3 3
12 13 10 8 7 4 6 5 4 8 8 8 9 10 12 12 12 12 11 10 9 10 9 9 9 8 7 6 5 4 4 3 3 3 2 2 1 1 2 2 2 2 2 2 2 2 3 2 3
14 13 15 12 12 8 5 5 4 9 10 9 11 11 11 11 12 12 12 11 10 9 9 9 8 7 6 6 5 5 4 3 3 2 2 1 1 1 2 2 2 2 2 2 2 2 2 1 2
16 13 10 10 8 9 7 8 4 7 7 9 10 11 11 11 12 11 11 11 10 9 8 8 8 7 6 6 5 5 5 4 3 2 2 1 0 0 0 1 2 2 2 2 2 2 2 2 2
14 14 12 9 8 9 6 4 2 8 7 8 8 9 10 11 11 12 11 11 10 10 10 9 8 7 6 6 5 4 4 4 4 2 2 1 0 0 1 1 1 1 1 1 2 2 2 1 1
14 15 13 10 8 8 8 3 4 5 7 8 9 9 9 9 10 11 11 10 9 9 10 9 9 8 7 6 6 5 4 3 3 3 3 2 1 0 0 1 1 1 1 1 1 1 1 1 1
Wind_Direction
238 237 227 244 228 71 66 65 64 64 63 59 59 65 60 59 74 93 112 110 111 112 114 109 103 101 98 97 97 96 96 93 91 90 89 90 91 93 95 95 95 97 99 99 99 98 98 98 100
262 250 237 243 75 74 69 69 69 70 72 70 69 74 75 75 87 101 109 114 116 118 115 108 108 103 100 98 98 97 97 96 92 90 90 92 94 95 97 99 100 101 102 103 102 101 101 101 103
258 255 258 117 72 73 75 76 80 83 84 83 73 65 72 87 96 106 116 118 113 108 107 110 111 107 103 100 97 97 97 97 96 93 93 94 96 97 98 102 104 104 105 105 105 104 104 104 105
261 246 218 80 79 78 81 86 89 89 84 87 88 78 73 87 102 114 123 120 116 116 114 113 113 109 107 104 101 99 99 98 97 96 96 96 98 99 100 104 106 107 107 108 108 107 107 108 110
245 277 80 84 83 85 85 84 82 82 82 84 88 92 90 96 109 121 124 121 119 115 116 119 117 114 110 107 104 102 101 101 101 99 100 99 100 102 105 106 108 107 107 108 109 111 111 113 117
264 242 84 86 87 86 86 87 88 90 96 103 104 103 102 112 120 124 119 118 120 119 118 122 122 120 116 111 107 107 108 105 105 106 107 107 105 105 105 107 109 109 108 109 113 115 116 118 123
267 36 79 87 88 86 82 85 87 87 89 98 111 113 120 123 123 118 116 117 118 120 126 133 133 128 124 120 117 115 113 112 113 115 116 114 113 113 113 111 112 112 112 114 119 120 122 127 136
335 62 91 92 91 89 86 80 81 84 84 96 118 119 130 131 130 119 116 110 111 119 128 135 137 139 141 132 130 128 126 124 125 128 130 129 129 129 128 124 118 118 119 122 125 128 131 139 155
16 28 78 86 93 97 98 95 95 91 80 67 75 114 130 137 132 128 122 118 119 119 124 133 133 144 142 137 138 142 140 139 145 147 150 154 152 141 146 123 128 130 132 135 138 143 148 158 178
83 76 78 83 92 100 100 107 113 109 108 101 97 111 129 139 140 142 138 136 134 128 123 126 125 134 134 130 138 152 149 147 164 143 160 177 156 139 131 135 145 149 151 154 162 166 173 187 185
70 82 81 84 84 89 101 105 105 113 120 127 129 134 142 146 152 149 146 143 137 132 127 129 119 116 126 125 145 141 142 142 152 144 162 159 155 143 138 152 155 165 170 178 167 181 203 208 188
73 84 82 83 88 87 82 89 90 90 106 126 135 142 147 155 157 151 145 140 136 136 137 129 119 111 103 111 129 153 150 145 147 159 188 156 158 141 140 154 165 172 175 174 173 185 189 182 166
71 87 94 105 105 86 75 81 100 107 114 125 136 145 151 159 152 141 133 132 136 141 138 124 120 116 110 102 150 139 138 142 149 157 162 155 140 125 127 140 158 173 155 163 172 167 153 145 148
354 24 132 122 105 89 69 39 103 125 128 133 141 149 156 156 147 138 138 140 142 145 140 133 137 137 138 148 150 133 149 143 146 147 142 146 122 114 119 130 146 156 156 142 158 167 147 177 192
260 247 216 154 125 112 93 347 191 138 139 142 148 155 154 153 149 148 150 150 150 149 144 145 154 150 161 172 189 174 157 142 135 119 127 139 128 117 130 123 145 148 113 107 148 173 167 195 199
247 232 229 176 127 132 134 195 200 163 153 151 155 156 154 155 155 153 154 155 153 151 150 166 172 156 165 180 201 179 150 138 126 120 123 149 134 154 155 156 168 150 153 156 178 222 200 202 224
254 231 219 178 154 160 167 169 181 168 155 156 160 158 156 160 160 154 157 158 154 152 156 169 173 159 167 176 189 191 147 133 137 140 149 164 170 174 190 180 153 169 189 191 210 186 213 222 225
284 257 214 192 157 184 178 172 163 171 161 165 167 162 161 166 166 157 158 158 153 154 159 166 175 164 164 163 171 204 187 171 181 166 166 171 188 185 198 196 176 195 199 206 205 197 223 238 237
285 292 280 196 130 211 232 200 174 166 169 169 168 164 164 167 164 157 162 160 157 159 163 168 174 164 168 170 179 189 198 191 193 187 183 179 193 191 201 227 182 200 203 206 207 203 223 226 222
272 273 276 251 151 249 253 264 211 177 180 174 166 168 170 166 162 159 163 164 163 165 168 172 177 170 180 180 181 195 198 198 194 187 169 179 186 195 202 199 207 199 206 218 230 220 229 244 227
261 265 277 286 262 241 249 255 192 254 210 191 176 172 169 170 165 163 168 171 170 170 174 179 178 175 183 181 178 191 182 218 195 173 177 187 190 204 209 194 209 204 193 203 228 225 220 234 241
255 265 276 278 273 272 263 259 197 219 214 208 183 167 167 166 163 164 170 175 176 173 175 174 170 173 176 179 191 194 192 200 208 189 177 183 197 203 197 199 216 217 224 208 226 210 225 227 248
264 283 283 274 271 274 269 267 212 192 204 203 181 175 166 160 161 162 168 172 171 170 168 166 164 170 172 182 192 196 205 203 214 195 170 186 191 199 204 191 207 216 234 225 236 228 232 235 244
265 269 271 266 264 259 253 253 196 174 178 178 167 158 151 150 149 152 158 161 164 164 161 158 162 169 172 183 195 198 201 195 206 200 185 195 190 198 203 201 200 214 232 232 229 226 230 241 257
240 247 248 245 241 253 259 251 173 171 168 147 148 150 150 149 149 152 156 158 161 162 161 160 163 171 178 186 193 192 196 191 198 211 208 208 204 193 197 204 189 215 232 233 227 222 238 236 245
231 239 245 259 272 290 288 274 147 139 131 138 147 147 149 153 154 156 158 158 159 163 164 163 164 170 178 182 186 186 186 190 198 203 211 212 224 192 176 188 191 208 227 240 225 232 235 236 245
240 240 252 256 262 264 257 269 177 140 147 152 149 149 151 154 155 157 158 158 160 163 164 163 161 170 176 176 174 175 177 184 185 185 202 214 222 215 170 181 187 211 225 245 235 239 243 241 247
244 250 258 258 268 273 250 248 210 150 162 154 151 153 153 153 153 158 157 158 161 162 160 160 161 170 170 169 175 176 177 178 180 187 191 213 206 96 147 189 211 217 222 231 237 243 244 240 246
228 244 257 274 268 269 268 275 177 158 174 159 150 150 155 162 161 158 156 157 159 157 159 160 159 163 167 169 166 166 164 167 165 167 166 154 111 154 179 229 242 235 240 236 233 242 250 244 267
242 236 241 249 261 271 275 257 214 176 155 154 151 155 153 157 158 153 152 150 155 159 158 156 159 164 165 162 156 155 152 153 160 158 144 139 150 183 220 225 245 252 254 263 282 289 277 238 268